Location: Riverside Cemetery
(38.3047°N, 99.7773°W)
Time: 19:05:03
(UTC+00:00)

Cosmos 2195 Rocket - Pass Details

Date: 19 September 2020
Orbit: 948 x 994 km, 82.9° (Epoch: 22 October)

Event Time Altitude Azimuth Distance (km) Brightness Sun altitude
Rises 02:52:55 0° 356° (N) 3,690 7.9 -25.8°
Reaches altitude 10° 02:55:30 10° 359° (N) 2,732 7.1 -26.3°
Enters shadow 03:01:28 65° 68° (ENE) 1,059 4.4 -27.3°
